[Date Prev][Date Next][Thread Prev][Thread Next] - [Date Index][Thread Index][Author Index]

2 Line ISS Keps 8-23



ISS
1 25544U 98067A   02235.10034258  .00040115  00000-0  51944-3 0   724
2 25544  51.6381  77.1680 0016847 172.2067 333.3146 15.58321134214469


----
Via the sarex mailing list at AMSAT.ORG courtesy of AMSAT-NA.
To unsubscribe, send "unsubscribe sarex" to Majordomo@amsat.org



AMSAT Top AMSAT Home